| time (UTC) | temp F | wind direction | speed MPH | gust MPH | rain 1hr in | rain 24hr in | rain mn in | humidity % | barometer mb |
| 20260904193116 | 73 | 312 | 5.0 | 12.0 | 0.00 | 0.00 | 0.00 | 62 | 1011.8 |
| 20260904191604 | 74 | 295 | 3.0 | 10.0 | 0.00 | 0.00 | 0.00 | 64 | 1011.8 |
| 20260904190106 | 74 | 296 | 3.0 | 8.0 | 0.00 | 0.00 | 0.00 | 61 | 1011.9 |
| 20260904184621 | 73 | 254 | 3.0 | 12.0 | 0.00 | 0.00 | 0.00 | 64 | 1012.1 |
| 20260904183102 | 73 | 319 | 4.0 | 9.0 | 0.00 | 0.00 | 0.00 | 64 | 1012.1 |
| 20260904181610 | 73 | 240 | 4.0 | 12.0 | 0.00 | 0.00 | 0.00 | 64 | 1012.0 |
| 20260904180119 | 74 | 320 | 3.0 | 10.0 | 0.00 | 0.00 | 0.00 | 59 | 1011.9 |
| 20260904174613 | 74 | 290 | 1.0 | 4.0 | 0.00 | 0.00 | 0.00 | 63 | 1011.9 |
| 20260904173112 | 73 | 275 | 3.0 | 7.0 | 0.00 | 0.00 | 0.00 | 62 | 1012.3 |
| 20260904171606 | 73 | 275 | 1.0 | 5.0 | 0.00 | 0.00 | 0.00 | 66 | 1012.1 |
| 20260904170105 | 73 | 305 | 2.0 | 13.0 | 0.00 | 0.00 | 0.00 | 66 | 1012.1 |
| 20260904164602 | 72 | 350 | 2.0 | 8.0 | 0.00 | 0.00 | 0.00 | 66 | 1012.0 |
| 20260904163110 | 72 | 292 | 3.0 | 6.0 | 0.00 | 0.00 | 0.00 | 68 | 1012.1 |
| 20260904161606 | 73 | 325 | 2.0 | 4.0 | 0.00 | 0.00 | 0.00 | 66 | 1012.0 |
| 20260904160106 | 72 | 248 | 1.0 | 7.0 | 0.00 | 0.00 | 0.00 | 70 | 1012.0 |
| 20260904154600 | 71 | 294 | 2.0 | 7.0 | 0.00 | 0.00 | 0.00 | 72 | 1012.1 |
| 20260904153127 | 71 | 296 | 2.0 | 7.0 | 0.00 | 0.00 | 0.00 | 71 | 1012.2 |
| 20260904151602 | 70 | 300 | 3.0 | 11.0 | 0.00 | 0.00 | 0.00 | 71 | 1012.1 |
| 20260904144608 | 70 | 257 | 3.0 | 8.0 | 0.00 | 0.00 | 0.00 | 73 | 1012.6 |
| 20260904143109 | 71 | 227 | 1.0 | 10.0 | 0.00 | 0.00 | 0.00 | 72 | 1012.8 |
| 20260904141602 | 70 | 309 | 3.0 | 11.0 | 0.00 | 0.00 | 0.00 | 73 | 1012.8 |
| 20260904140104 | 70 | 319 | 1.0 | 8.0 | 0.00 | 0.00 | 0.00 | 75 | 1012.7 |
| 20260904134604 | 69 | 321 | 2.0 | 8.0 | 0.00 | 0.00 | 0.00 | 77 | 1012.6 |
| 20260904133114 | 68 | 321 | 2.0 | 7.0 | 0.00 | 0.00 | 0.00 | 77 | 1012.4 |
| 20260904131604 | 67 | 273 | 1.0 | 5.0 | 0.00 | 0.00 | 0.00 | 81 | 1012.3 |
| 20260904124608 | 64 | 9 | 2.0 | 8.0 | 0.00 | 0.00 | 0.00 | 84 | 1012.2 |
| 20260904123116 | 64 | 297 | 2.0 | 6.0 | 0.00 | 0.00 | 0.00 | 85 | 1012.3 |
| 20260904121603 | 63 | 279 | 2.0 | 5.0 | 0.00 | 0.00 | 0.00 | 86 | 1012.4 |
| 20260904120104 | 63 | 271 | 1.0 | 7.0 | 0.00 | 0.00 | 0.00 | 87 | 1012.3 |
| 20260904114605 | 63 | 256 | 4.0 | 8.0 | 0.00 | 0.00 | 0.00 | 87 | 1012.3 |
| 20260904113103 | 62 | 290 | 2.0 | 9.0 | 0.00 | 0.00 | 0.00 | 89 | 1011.9 |
| 20260904111615 | 62 | 301 | 2.0 | 7.0 | 0.00 | 0.00 | 0.00 | 90 | 1011.6 |
| 20260904110110 | 61 | 326 | 2.0 | 7.0 | 0.00 | 0.00 | 0.00 | 91 | 1011.7 |
| 20260904104605 | 61 | 297 | 2.0 | 6.0 | 0.00 | 0.00 | 0.00 | 91 | 1011.7 |
| 20260904103105 | 62 | 277 | 1.0 | 5.0 | 0.00 | 0.00 | 0.00 | 90 | 1011.6 |
| 20260904101615 | 62 | 266 | 2.0 | 4.0 | 0.00 | 0.00 | 0.00 | 90 | 1011.5 |
| 20260904100104 | 62 | 295 | 1.0 | 5.0 | 0.00 | 0.00 | 0.00 | 90 | 1011.3 |
| 20260904094604 | 62 | 285 | 1.0 | 3.0 | 0.00 | 0.00 | 0.00 | 90 | 1011.3 |
| 20260904093118 | 62 | 286 | 1.0 | 5.0 | 0.00 | 0.00 | 0.00 | 89 | 1011.2 |
| 20260904091601 | 62 | 283 | 1.0 | 6.0 | 0.00 | 0.00 | 0.00 | 89 | 1011.1 |
| 20260904090059 | 63 | 308 | 1.0 | 6.0 | 0.00 | 0.00 | 0.00 | 89 | 1011.1 |
| 20260904084603 | 63 | 265 | 2.0 | 5.0 | 0.00 | 0.00 | 0.00 | 89 | 1011.1 |
| 20260904083105 | 63 | 290 | 1.0 | 6.0 | 0.00 | 0.00 | 0.00 | 88 | 1010.9 |
| 20260904081600 | 63 | 277 | 1.0 | 6.0 | 0.00 | 0.00 | 0.00 | 88 | 1010.9 |
| 20260904074604 | 64 | 315 | 2.0 | 3.0 | 0.00 | 0.00 | 0.00 | 87 | 1010.8 |
| 20260904073101 | 63 | 301 | 0.0 | 2.0 | 0.00 | 0.00 | 0.00 | 88 | 1010.8 |
| 20260904071601 | 64 | 0 | 0.0 | 2.0 | 0.00 | 0.00 | 0.00 | 87 | 1010.9 |
| 20260904070057 | 64 | 268 | 0.0 | 2.0 | 0.00 | 0.00 | 0.00 | 86 | 1010.9 |
| 20260904064602 | 65 | 259 | 0.0 | 3.0 | 0.00 | 0.00 | 0.00 | 85 | 1010.9 |
| 20260904063101 | 65 | 311 | 1.0 | 4.0 | 0.00 | 0.00 | 0.00 | 86 | 1010.8 |
| 20260904061600 | 65 | 281 | 1.0 | 4.0 | 0.00 | 0.00 | 0.00 | 86 | 1011.0 |
| 20260904060108 | 65 | 293 | 1.0 | 3.0 | 0.00 | 0.00 | 0.00 | 85 | 1010.8 |
| 20260904054604 | 65 | 298 | 1.0 | 5.0 | 0.00 | 0.00 | 0.00 | 85 | 1010.9 |
| 20260904053102 | 66 | 292 | 1.0 | 4.0 | 0.00 | 0.00 | 0.00 | 84 | 1010.9 |
| 20260904051604 | 66 | 297 | 1.0 | 3.0 | 0.00 | 0.00 | 0.00 | 83 | 1011.1 |
| 20260904050104 | 66 | 287 | 1.0 | 3.0 | 0.00 | 0.00 | 0.00 | 82 | 1011.0 |
| 20260904044610 | 67 | 289 | 1.0 | 3.0 | 0.00 | 0.00 | 0.00 | 81 | 1011.0 |
| 20260904043100 | 67 | 298 | 1.0 | 3.0 | 0.00 | 0.00 | 0.00 | 80 | 1011.2 |
| 20260904041604 | 67 | 285 | 1.0 | 3.0 | 0.00 | 0.00 | 0.00 | 78 | 1011.1 |
| 20260904040104 | 68 | 302 | 1.0 | 3.0 | 0.00 | 0.00 | 0.00 | 77 | 1011.0 |
| 20260904034608 | 69 | 281 | 0.0 | 5.0 | 0.00 | 0.01 | 0.00 | 76 | 1010.9 |
| 20260904033109 | 69 | 301 | 1.0 | 3.0 | 0.00 | 0.01 | 0.00 | 75 | 1011.0 |
| 20260904031602 | 69 | 297 | 1.0 | 4.0 | 0.00 | 0.01 | 0.00 | 74 | 1011.0 |
| 20260904030103 | 69 | 289 | 1.0 | 7.0 | 0.00 | 0.01 | 0.00 | 74 | 1011.1 |
| 20260904024608 | 70 | 290 | 1.0 | 4.0 | 0.00 | 0.01 | 0.00 | 73 | 1011.1 |
| 20260904023103 | 70 | 352 | 1.0 | 4.0 | 0.00 | 0.01 | 0.00 | 72 | 1011.2 |
| 20260904021602 | 70 | 281 | 2.0 | 7.0 | 0.00 | 0.01 | 0.00 | 71 | 1011.2 |
| 20260904020101 | 70 | 315 | 1.0 | 3.0 | 0.00 | 0.01 | 0.00 | 73 | 1011.2 |
| 20260904014600 | 70 | 293 | 1.0 | 2.0 | 0.00 | 0.01 | 0.00 | 76 | 1011.1 |
| 20260904013102 | 70 | 293 | 1.0 | 3.0 | 0.00 | 0.01 | 0.00 | 76 | 1011.2 |
| 20260904011613 | 71 | 281 | 0.0 | 3.0 | 0.00 | 0.01 | 0.00 | 74 | 1011.2 |
| 20260904010113 | 71 | 279 | 0.0 | 3.0 | 0.00 | 0.01 | 0.00 | 73 | 1011.2 |
| 20260904004603 | 72 | 0 | 0.0 | 1.0 | 0.00 | 0.01 | 0.00 | 71 | 1010.9 |
| 20260904003102 | 73 | 346 | 0.0 | 5.0 | 0.00 | 0.01 | 0.00 | 69 | 1010.5 |
| 20260904001558 | 73 | 0 | 1.0 | 3.0 | 0.00 | 0.01 | 0.00 | 68 | 1010.4 |
| 20260903234607 | 74 | 281 | 2.0 | 8.0 | 0.00 | 0.22 | 0.00 | 66 | 1010.2 |
| 20260903233103 | 75 | 307 | 2.0 | 8.0 | 0.00 | 0.22 | 0.00 | 64 | 1010.2 |
| 20260903231601 | 76 | 0 | 2.0 | 10.0 | 0.00 | 0.22 | 0.00 | 62 | 1009.8 |
| 20260903230108 | 76 | 188 | 3.0 | 12.0 | 0.00 | 0.22 | 0.00 | 60 | 1009.9 |
| 20260903224602 | 77 | 322 | 2.0 | 10.0 | 0.00 | 0.36 | 0.00 | 61 | 1010.0 |
| 20260903223107 | 78 | 252 | 2.0 | 9.0 | 0.00 | 0.36 | 0.00 | 59 | 1010.0 |
| 20260903221604 | 78 | 292 | 2.0 | 10.0 | 0.00 | 0.36 | 0.00 | 58 | 1009.7 |
| 20260903220123 | 78 | 332 | 4.0 | 9.0 | 0.00 | 0.36 | 0.00 | 57 | 1009.8 |
| 20260903214600 | 78 | 249 | 2.0 | 7.0 | 0.00 | 0.37 | 0.00 | 57 | 1009.5 |
| 20260903213106 | 79 | 296 | 3.0 | 11.0 | 0.00 | 0.37 | 0.00 | 54 | 1009.8 |
| 20260903211604 | 79 | 265 | 1.0 | 8.0 | 0.00 | 0.37 | 0.00 | 59 | 1009.9 |
| 20260903210109 | 79 | 277 | 2.0 | 9.0 | 0.00 | 0.37 | 0.00 | 58 | 1010.3 |
| 20260903204600 | 78 | 298 | 1.0 | 6.0 | 0.00 | 0.37 | 0.00 | 60 | 1010.4 |
| 20260903203130 | 78 | 331 | 1.0 | 7.0 | 0.00 | 0.37 | 0.00 | 60 | 1010.4 |
| 20260903201606 | 78 | 292 | 2.0 | 11.0 | 0.00 | 0.37 | 0.00 | 59 | 1009.8 |
| 20260903200104 | 78 | 299 | 2.0 | 8.0 | 0.00 | 0.37 | 0.00 | 57 | 1009.9 |
| 20260903194602 | 80 | 249 | 3.0 | 9.0 | 0.00 | 0.37 | 0.00 | 55 | 1010.0 |